Time,TemperatureF,DewpointF,PressureIn,WindDirection,WindDirectionDegrees,WindSpeedMPH,WindSpeedGustMPH,Humidity,HourlyPrecipIn,Conditions,Clouds,dailyrainin,SolarRadiationWatts/m^2,SoftwareType,DateUTC
2014-10-20 00:00:00,60.0,54.0,29.77,ESE,115,1.9,2.8,80,0.00,,,0.00,0,,2014-10-20 07:00:00,
2014-10-20 00:05:00,59.7,53.9,29.77,ESE,116,1.4,2.8,81,0.00,,,0.00,0,,2014-10-20 07:05:00,
2014-10-20 00:10:00,59.5,53.9,29.76,ESE,110,2.3,3.0,81,0.00,,,0.00,0,,2014-10-20 07:10:00,
2014-10-20 00:15:00,59.7,54.1,29.76,ESE,121,2.1,3.9,81,0.00,,,0.00,0,,2014-10-20 07:15:00,
2014-10-20 00:20:00,60.0,54.4,29.76,SE,131,2.4,4.2,81,0.00,,,0.00,0,,2014-10-20 07:20:00,
2014-10-20 00:25:00,60.6,54.4,29.77,SE,143,2.4,4.5,80,0.00,,,0.00,0,,2014-10-20 07:25:00,
2014-10-20 00:30:00,60.8,54.4,29.76,ESE,111,0.7,4.2,79,0.00,,,0.00,0,,2014-10-20 07:30:00,
2014-10-20 00:35:00,60.4,54.1,29.77,SW,229,1.0,3.0,79,0.00,,,0.00,0,,2014-10-20 07:35:00,
2014-10-20 00:40:00,60.0,54.2,29.77,SW,219,0.6,1.9,80,0.00,,,0.00,0,,2014-10-20 07:40:00,
2014-10-20 00:45:00,59.7,54.1,29.77,SE,129,1.2,1.6,81,0.00,,,0.00,0,,2014-10-20 07:45:00,
2014-10-20 00:50:00,59.7,54.1,29.78,South,189,1.6,2.5,81,0.00,,,0.00,0,,2014-10-20 07:50:00,
2014-10-20 00:55:00,59.5,54.1,29.78,WSW,241,1.0,2.5,82,0.00,,,0.00,0,,2014-10-20 07:55:00,
2014-10-20 01:00:00,59.3,54.0,29.77,SSW,205,0.6,1.9,82,0.00,,,0.00,0,,2014-10-20 08:00:00,
2014-10-20 01:05:00,58.8,53.8,29.77,SE,125,0.7,1.6,83,0.00,,,0.00,0,,2014-10-20 08:05:00,
2014-10-20 01:10:00,58.6,53.7,29.77,SSE,163,0.5,2.5,83,0.00,,,0.00,0,,2014-10-20 08:10:00,
2014-10-20 01:15:00,58.6,53.9,29.78,WSW,238,0.8,1.4,84,0.00,,,0.00,0,,2014-10-20 08:15:00,
2014-10-20 01:20:00,58.1,53.6,29.78,SW,227,0.2,1.4,85,0.00,,,0.00,0,,2014-10-20 08:20:00,
2014-10-20 01:25:00,57.0,52.9,29.78,WSW,248,0.0,1.1,86,0.00,,,0.00,0,,2014-10-20 08:25:00,
2014-10-20 01:30:00,56.4,52.7,29.78,SSE,148,0.0,0.0,87,0.00,,,0.00,0,,2014-10-20 08:30:00,
2014-10-20 01:35:00,55.9,52.2,29.78,WSW,252,0.4,0.5,87,0.00,,,0.00,0,,2014-10-20 08:35:00,
2014-10-20 01:40:00,55.9,52.2,29.78,WSW,252,0.0,0.8,87,0.00,,,0.00,0,,2014-10-20 08:40:00,
2014-10-20 01:45:00,55.7,52.6,29.78,WSW,252,0.0,0.0,89,0.00,,,0.00,0,,2014-10-20 08:45:00,
2014-10-20 01:50:00,55.4,51.9,29.78,WSW,252,0.0,0.0,88,0.00,,,0.00,0,,2014-10-20 08:50:00,
2014-10-20 01:55:00,55.2,51.9,29.78,WSW,252,0.0,0.0,88,0.00,,,0.00,0,,2014-10-20 08:55:00,
2014-10-20 02:00:00,55.2,52.3,29.78,WSW,238,0.4,0.5,90,0.00,,,0.00,0,,2014-10-20 09:00:00,
2014-10-20 02:05:00,55.0,52.1,29.78,SE,126,0.0,0.8,90,0.00,,,0.00,0,,2014-10-20 09:05:00,
2014-10-20 02:10:00,54.8,51.9,29.78,SE,130,0.6,1.1,89,0.00,,,0.00,0,,2014-10-20 09:10:00,
2014-10-20 02:15:00,54.6,51.8,29.78,SSE,147,0.5,1.1,90,0.00,,,0.00,0,,2014-10-20 09:15:00,
2014-10-20 02:20:00,53.9,51.1,29.78,WSW,237,0.4,0.8,90,0.00,,,0.00,0,,2014-10-20 09:20:00,
2014-10-20 02:25:00,54.6,51.8,29.78,West,265,0.5,1.4,90,0.00,,,0.00,0,,2014-10-20 09:25:00,
2014-10-20 02:30:00,53.9,51.3,29.78,SSW,203,0.0,0.8,90,0.00,,,0.00,0,,2014-10-20 09:30:00,
2014-10-20 02:35:00,53.6,51.2,29.78,SSE,148,0.0,0.5,91,0.00,,,0.00,0,,2014-10-20 09:35:00,
2014-10-20 02:40:00,53.2,50.8,29.78,South,170,0.0,0.2,91,0.00,,,0.00,0,,2014-10-20 09:40:00,
2014-10-20 02:45:00,53.0,50.7,29.78,West,266,1.4,1.4,91,0.00,,,0.00,0,,2014-10-20 09:45:00,
2014-10-20 02:50:00,53.4,51.1,29.78,WSW,238,0.6,1.6,91,0.00,,,0.00,0,,2014-10-20 09:50:00,
2014-10-20 02:55:00,52.8,50.7,29.78,WSW,237,0.4,1.1,92,0.00,,,0.00,0,,2014-10-20 09:55:00,
2014-10-20 03:00:00,53.4,51.4,29.78,WSW,258,0.0,1.4,93,0.00,,,0.00,0,,2014-10-20 10:00:00,
2014-10-20 03:05:00,53.0,51.1,29.78,WNW,296,0.0,0.5,93,0.00,,,0.00,0,,2014-10-20 10:05:00,
2014-10-20 03:10:00,52.8,51.0,29.78,West,273,0.1,1.1,93,0.00,,,0.00,0,,2014-10-20 10:10:00,
2014-10-20 03:15:00,52.1,50.2,29.78,West,272,0.0,0.8,93,0.00,,,0.00,0,,2014-10-20 10:15:00,
2014-10-20 03:20:00,51.9,50.0,29.78,West,273,0.0,0.2,93,0.00,,,0.00,0,,2014-10-20 10:20:00,
2014-10-20 03:25:00,51.8,50.2,29.78,West,273,0.0,0.0,94,0.00,,,0.00,0,,2014-10-20 10:25:00,
2014-10-20 03:30:00,51.6,49.9,29.77,West,274,0.0,0.0,94,0.00,,,0.00,0,,2014-10-20 10:30:00,
2014-10-20 03:35:00,51.2,49.4,29.77,West,274,0.0,0.0,93,0.00,,,0.00,0,,2014-10-20 10:35:00,
2014-10-20 03:40:00,51.0,49.1,29.77,West,273,0.0,0.0,93,0.00,,,0.00,0,,2014-10-20 10:40:00,
2014-10-20 03:45:00,51.6,50.0,29.77,WSW,258,1.5,1.5,94,0.00,,,0.00,0,,2014-10-20 10:45:00,
2014-10-20 03:50:00,51.8,50.2,29.77,West,280,0.5,2.2,94,0.00,,,0.00,0,,2014-10-20 10:50:00,
2014-10-20 03:55:00,50.9,49.4,29.77,WSW,255,0.3,1.1,94,0.00,,,0.00,0,,2014-10-20 10:55:00,
2014-10-20 04:00:00,50.9,49.4,29.77,South,172,0.0,0.8,94,0.00,,,0.00,0,,2014-10-20 11:00:00,
2014-10-20 04:05:00,50.7,49.1,29.77,NW,314,0.0,0.2,94,0.00,,,0.00,0,,2014-10-20 11:05:00,
2014-10-20 04:11:00,50.7,49.4,29.77,NW,314,0.0,0.8,95,0.00,,,0.00,0,,2014-10-20 11:11:00,
2014-10-20 04:16:00,50.5,49.4,29.77,NW,313,0.0,0.0,96,0.00,,,0.00,0,,2014-10-20 11:16:00,
2014-10-20 04:21:00,50.7,49.7,29.78,West,280,0.2,0.2,96,0.00,,,0.00,0,,2014-10-20 11:21:00,
2014-10-20 04:26:00,51.6,50.5,29.77,SSW,199,0.0,1.9,96,0.00,,,0.00,0,,2014-10-20 11:26:00,
2014-10-20 04:31:00,52.8,52.2,29.78,SSW,211,0.9,2.2,97,0.00,,,0.00,0,,2014-10-20 11:31:00,
2014-10-20 04:36:00,52.1,50.6,29.78,SW,225,0.2,1.6,94,0.00,,,0.00,0,,2014-10-20 11:36:00,
2014-10-20 04:41:00,53.7,53.0,29.78,SSW,199,1.0,1.6,97,0.00,,,0.00,0,,2014-10-20 11:41:00,
2014-10-20 04:46:00,54.1,52.8,29.77,ESE,120,1.2,2.2,95,0.00,,,0.00,0,,2014-10-20 11:46:00,
2014-10-20 04:51:00,54.5,53.1,29.77,SE,130,1.5,2.5,95,0.00,,,0.00,0,,2014-10-20 11:51:00,
2014-10-20 04:56:00,55.0,53.7,29.77,ESE,120,3.0,3.3,95,0.00,,,0.00,0,,2014-10-20 11:56:00,
2014-10-20 05:01:00,55.7,54.2,29.77,SE,128,2.2,5.3,94,0.00,,,0.00,0,,2014-10-20 12:01:00,
2014-10-20 05:06:00,55.5,54.0,29.77,ESE,115,2.9,4.5,94,0.00,,,0.00,0,,2014-10-20 12:06:00,
2014-10-20 05:11:00,55.5,54.0,29.77,ESE,113,3.1,6.7,94,0.00,,,0.00,0,,2014-10-20 12:11:00,
2014-10-20 05:16:00,55.5,54.0,29.76,ESE,115,3.4,4.5,94,0.00,,,0.00,0,,2014-10-20 12:16:00,
2014-10-20 05:21:00,55.9,54.4,29.77,SSE,150,1.7,5.3,94,0.00,,,0.00,0,,2014-10-20 12:21:00,
2014-10-20 05:26:00,56.3,54.7,29.77,WSW,239,1.5,4.2,94,0.00,,,0.00,0,,2014-10-20 12:26:00,
2014-10-20 05:31:00,56.1,54.4,29.78,SW,233,0.9,3.3,94,0.00,,,0.00,0,,2014-10-20 12:31:00,
2014-10-20 05:36:00,55.9,54.1,29.78,WSW,243,1.0,3.3,93,0.00,,,0.00,0,,2014-10-20 12:36:00,
2014-10-20 05:41:00,55.7,54.2,29.77,South,175,1.1,2.2,94,0.00,,,0.00,0,,2014-10-20 12:41:00,
2014-10-20 05:46:00,55.9,54.4,29.78,SE,145,1.1,3.6,94,0.00,,,0.00,0,,2014-10-20 12:46:00,
2014-10-20 05:51:00,55.7,54.3,29.78,SSE,148,1.1,2.8,94,0.00,,,0.00,0,,2014-10-20 12:51:00,
2014-10-20 05:56:00,55.9,54.5,29.78,SSE,163,2.7,3.9,95,0.00,,,0.00,0,,2014-10-20 12:56:00,
2014-10-20 06:01:00,55.9,54.5,29.78,SE,136,2.8,5.0,95,0.00,,,0.00,0,,2014-10-20 13:01:00,
2014-10-20 06:07:00,56.1,54.8,29.78,SE,135,4.2,5.6,95,0.00,,,0.00,0,,2014-10-20 13:07:00,
2014-10-20 06:12:00,56.1,54.8,29.78,SE,133,2.6,6.1,95,0.00,,,0.00,0,,2014-10-20 13:12:00,
2014-10-20 06:17:00,55.9,54.7,29.78,SE,141,3.2,5.6,95,0.00,,,0.00,0,,2014-10-20 13:17:00,
2014-10-20 06:22:00,55.5,54.4,29.78,SE,134,2.2,5.0,95,0.00,,,0.00,0,,2014-10-20 13:22:00,
2014-10-20 06:27:00,55.5,54.5,29.78,SE,126,2.3,5.6,96,0.00,,,0.00,0,,2014-10-20 13:27:00,
2014-10-20 06:32:00,55.7,54.7,29.77,ESE,113,2.4,5.9,96,0.00,,,0.00,0,,2014-10-20 13:32:00,
2014-10-20 06:37:00,55.5,54.6,29.78,ESE,123,2.8,6.1,96,0.00,,,0.00,0,,2014-10-20 13:37:00,
2014-10-20 06:42:00,55.5,54.7,29.78,SE,126,3.8,6.1,97,0.00,,,0.00,0,,2014-10-20 13:42:00,
2014-10-20 06:47:00,55.5,54.7,29.78,ESE,108,3.4,5.3,97,0.00,,,0.00,0,,2014-10-20 13:47:00,
2014-10-20 06:52:00,55.5,54.8,29.78,SE,125,2.7,5.3,97,0.00,,,0.00,0,,2014-10-20 13:52:00,
2014-10-20 06:57:00,55.7,55.0,29.78,South,172,2.4,5.3,97,0.00,,,0.00,0,,2014-10-20 13:57:00,
2014-10-20 07:02:00,55.9,55.2,29.79,SSW,205,1.2,3.6,97,0.00,,,0.00,0,,2014-10-20 14:02:00,
2014-10-20 07:07:00,56.1,55.4,29.78,South,187,1.8,3.0,97,0.00,,,0.00,0,,2014-10-20 14:07:00,
2014-10-20 07:12:00,56.3,55.5,29.78,SW,216,0.2,3.3,97,0.00,,,0.00,0,,2014-10-20 14:12:00,
2014-10-20 07:17:00,56.4,55.6,29.79,South,191,1.5,3.6,97,0.00,,,0.00,0,,2014-10-20 14:17:00,
2014-10-20 07:22:00,56.6,55.8,29.79,SSW,194,3.2,3.9,97,0.00,,,0.00,0,,2014-10-20 14:22:00,
2014-10-20 07:27:00,56.8,55.9,29.79,SW,220,3.3,5.0,96,0.00,,,0.00,0,,2014-10-20 14:27:00,
2014-10-20 07:32:00,57.0,56.0,29.79,SSE,159,1.1,5.3,96,0.00,,,0.00,0,,2014-10-20 14:32:00,
2014-10-20 07:37:00,57.2,56.1,29.79,South,186,1.9,4.5,96,0.00,,,0.00,0,,2014-10-20 14:37:00,
2014-10-20 07:42:00,57.3,56.1,29.79,SSE,149,3.6,5.0,95,0.00,,,0.00,0,,2014-10-20 14:42:00,
2014-10-20 07:47:00,57.3,56.1,29.79,SSE,154,2.1,4.7,95,0.00,,,0.00,0,,2014-10-20 14:47:00,
2014-10-20 07:52:00,57.3,56.1,29.80,SSE,160,1.6,3.9,95,0.00,,,0.00,0,,2014-10-20 14:52:00,
2014-10-20 07:57:00,57.5,56.1,29.79,SE,136,2.9,4.5,95,0.00,,,0.00,0,,2014-10-20 14:57:00,
2014-10-20 08:02:00,57.5,56.1,29.80,SSE,148,2.1,5.0,94,0.00,,,0.00,0,,2014-10-20 15:02:00,
2014-10-20 08:07:00,57.5,56.0,29.80,SE,144,3.1,4.7,94,0.00,,,0.00,0,,2014-10-20 15:07:00,
2014-10-20 08:12:00,57.7,56.3,29.80,ESE,116,3.2,5.0,95,0.00,,,0.00,0,,2014-10-20 15:12:00,
2014-10-20 08:17:00,57.9,56.5,29.80,SE,129,2.5,5.6,95,0.00,,,0.00,0,,2014-10-20 15:17:00,
2014-10-20 08:22:00,57.9,56.4,29.80,SE,134,2.4,5.0,94,0.00,,,0.00,0,,2014-10-20 15:22:00,
2014-10-20 08:27:00,58.1,56.5,29.81,SSE,150,1.7,5.3,94,0.00,,,0.00,0,,2014-10-20 15:27:00,
2014-10-20 08:32:00,58.1,56.5,29.81,SE,141,2.8,5.6,94,0.00,,,0.00,0,,2014-10-20 15:32:00,
2014-10-20 08:37:00,58.1,56.5,29.82,SE,132,3.0,6.1,94,0.00,,,0.00,0,,2014-10-20 15:37:00,
2014-10-20 08:42:00,58.2,56.6,29.82,SE,135,2.3,3.9,94,0.00,,,0.00,0,,2014-10-20 15:42:00,
2014-10-20 08:47:00,58.4,56.8,29.82,SE,132,2.3,4.5,94,0.00,,,0.00,0,,2014-10-20 15:47:00,
2014-10-20 08:52:00,58.2,56.5,29.82,SSE,151,3.4,5.0,94,0.00,,,0.00,0,,2014-10-20 15:52:00,
2014-10-20 08:57:00,58.4,56.6,29.82,SSE,161,2.2,4.5,93,0.00,,,0.00,0,,2014-10-20 15:57:00,
2014-10-20 09:02:00,58.6,56.7,29.82,SSE,158,2.0,3.3,93,0.00,,,0.00,0,,2014-10-20 16:02:00,
2014-10-20 09:07:00,58.8,56.9,29.83,SE,142,2.7,5.0,93,0.00,,,0.00,0,,2014-10-20 16:07:00,
2014-10-20 09:12:00,59.0,57.0,29.83,SE,141,2.1,4.2,93,0.00,,,0.00,0,,2014-10-20 16:12:00,
2014-10-20 09:17:00,59.1,57.0,29.83,SSE,147,2.3,3.9,92,0.00,,,0.00,0,,2014-10-20 16:17:00,
2014-10-20 09:22:00,59.1,56.9,29.83,SSE,161,1.7,3.9,92,0.00,,,0.00,0,,2014-10-20 16:22:00,
2014-10-20 09:27:00,59.3,56.9,29.84,SSE,166,4.5,6.4,91,0.00,,,0.00,0,,2014-10-20 16:27:00,
2014-10-20 09:32:00,59.3,56.9,29.84,South,174,2.8,5.6,91,0.00,,,0.00,0,,2014-10-20 16:32:00,
2014-10-20 09:37:00,59.3,56.8,29.84,South,181,3.4,5.3,91,0.00,,,0.00,0,,2014-10-20 16:37:00,
2014-10-20 09:42:00,59.5,57.2,29.84,SSE,165,1.5,7.3,92,0.00,,,0.00,0,,2014-10-20 16:42:00,
2014-10-20 09:47:00,59.7,57.2,29.84,SSE,158,2.8,4.2,91,0.00,,,0.00,0,,2014-10-20 16:47:00,
2014-10-20 09:52:00,59.9,57.2,29.84,SSE,158,4.5,6.7,91,0.00,,,0.00,0,,2014-10-20 16:52:00,
2014-10-20 09:57:00,60.2,57.3,29.84,SE,139,5.1,7.0,90,0.00,,,0.00,0,,2014-10-20 16:57:00,
2014-10-20 10:02:00,60.4,57.1,29.84,SE,145,5.3,8.1,88,0.00,,,0.00,0,,2014-10-20 17:02:00,
2014-10-20 10:07:00,60.9,57.3,29.84,SE,138,6.2,7.5,87,0.00,,,0.00,0,,2014-10-20 17:07:00,
2014-10-20 10:12:00,60.9,57.3,29.84,SE,140,5.4,8.7,87,0.00,,,0.00,0,,2014-10-20 17:12:00,
2014-10-20 10:17:00,60.9,57.4,29.84,SE,134,4.5,8.4,88,0.00,,,0.00,0,,2014-10-20 17:17:00,
2014-10-20 10:22:00,61.5,57.9,29.84,SE,125,7.1,8.1,87,0.00,,,0.00,0,,2014-10-20 17:22:00,
2014-10-20 10:27:00,62.0,57.9,29.84,SE,143,3.9,9.2,86,0.00,,,0.00,0,,2014-10-20 17:27:00,
2014-10-20 10:32:00,61.8,57.6,29.84,SE,143,3.7,7.8,86,0.00,,,0.00,0,,2014-10-20 17:32:00,
2014-10-20 10:37:00,61.8,57.7,29.84,SE,142,4.8,10.1,86,0.00,,,0.00,0,,2014-10-20 17:37:00,
2014-10-20 10:42:00,62.0,57.7,29.85,SSE,148,5.8,9.0,85,0.00,,,0.00,0,,2014-10-20 17:42:00,
2014-10-20 10:47:00,62.0,57.8,29.85,SSE,147,3.6,9.2,86,0.00,,,0.00,0,,2014-10-20 17:47:00,
2014-10-20 10:52:00,61.8,57.5,29.84,SE,143,5.6,8.7,85,0.00,,,0.00,0,,2014-10-20 17:52:00,
2014-10-20 10:57:00,61.8,57.6,29.84,SSE,148,4.9,8.7,85,0.00,,,0.00,0,,2014-10-20 17:57:00,
2014-10-20 11:02:00,61.7,57.7,29.84,SE,134,5.5,7.0,86,0.00,,,0.00,0,,2014-10-20 18:02:00,
2014-10-20 11:07:00,61.5,58.1,29.84,SE,137,5.0,8.1,88,0.00,,,0.00,0,,2014-10-20 18:07:00,
2014-10-20 11:12:00,61.1,58.4,29.84,SSE,157,4.6,7.0,90,0.00,,,0.00,0,,2014-10-20 18:12:00,
2014-10-20 11:17:00,60.8,58.4,29.85,SE,143,3.2,5.9,92,0.00,,,0.00,0,,2014-10-20 18:17:00,
2014-10-20 11:22:00,60.9,58.8,29.84,SSE,162,3.6,5.3,92,0.00,,,0.00,0,,2014-10-20 18:22:00,
2014-10-20 11:27:00,61.1,59.3,29.84,SSE,160,2.6,5.3,93,0.00,,,0.00,0,,2014-10-20 18:27:00,
2014-10-20 11:32:00,61.1,59.2,29.84,SSE,155,2.8,4.2,93,0.00,,,0.00,0,,2014-10-20 18:32:00,
2014-10-20 11:37:00,61.1,59.4,29.84,SSE,162,1.4,4.2,94,0.00,,,0.00,0,,2014-10-20 18:37:00,
2014-10-20 11:42:00,60.9,59.2,29.84,SSE,153,2.0,5.6,94,0.00,,,0.00,0,,2014-10-20 18:42:00,
2014-10-20 11:47:00,60.9,59.2,29.84,SSW,199,3.0,3.6,93,0.00,,,0.00,0,,2014-10-20 18:47:00,
2014-10-20 11:52:00,60.9,59.1,29.84,SSW,212,1.7,3.9,93,0.00,,,0.00,0,,2014-10-20 18:52:00,
2014-10-20 11:57:00,61.5,59.6,29.84,SSE,147,1.9,3.3,93,0.00,,,0.00,0,,2014-10-20 18:57:00,
2014-10-20 12:02:00,62.2,60.1,29.84,SE,132,4.5,9.0,92,0.00,,,0.00,0,,2014-10-20 19:02:00,
2014-10-20 12:07:00,63.1,60.8,29.84,SE,136,3.2,6.7,92,0.00,,,0.00,0,,2014-10-20 19:07:00,
2014-10-20 12:12:00,63.5,60.4,29.84,SSE,149,5.6,9.0,89,0.00,,,0.00,0,,2014-10-20 19:12:00,
2014-10-20 12:17:00,63.6,60.0,29.84,SE,142,7.8,11.5,88,0.00,,,0.00,0,,2014-10-20 19:17:00,
2014-10-20 12:22:00,64.0,59.8,29.84,SE,142,7.1,12.0,86,0.00,,,0.00,0,,2014-10-20 19:22:00,
2014-10-20 12:27:00,64.7,60.9,29.84,SE,126,4.9,10.4,87,0.00,,,0.00,0,,2014-10-20 19:27:00,
2014-10-20 12:32:00,65.1,60.8,29.83,ESE,114,5.1,10.1,86,0.00,,,0.00,0,,2014-10-20 19:32:00,
2014-10-20 12:37:00,66.0,60.9,29.83,ESE,112,6.6,9.5,83,0.00,,,0.00,0,,2014-10-20 19:37:00,
2014-10-20 12:42:00,66.3,61.2,29.83,SE,127,3.9,8.7,83,0.00,,,0.00,0,,2014-10-20 19:42:00,
2014-10-20 12:47:00,66.5,61.3,29.83,ESE,110,4.2,7.8,83,0.00,,,0.00,0,,2014-10-20 19:47:00,
2014-10-20 12:52:00,66.7,61.3,29.83,SE,131,4.3,7.0,82,0.00,,,0.00,0,,2014-10-20 19:52:00,
2014-10-20 12:57:00,67.2,61.2,29.83,SE,127,4.8,8.1,81,0.00,,,0.00,0,,2014-10-20 19:57:00,
2014-10-20 13:02:00,68.3,61.4,29.83,SSE,151,3.6,7.5,78,0.00,,,0.00,0,,2014-10-20 20:02:00,
2014-10-20 13:07:00,67.4,60.7,29.83,SE,130,6.9,9.0,79,0.00,,,0.00,0,,2014-10-20 20:07:00,
2014-10-20 13:12:00,66.9,60.9,29.83,ESE,122,4.6,9.2,81,0.00,,,0.00,0,,2014-10-20 20:12:00,
2014-10-20 13:17:00,67.4,61.8,29.82,ESE,123,3.2,8.1,82,0.00,,,0.00,0,,2014-10-20 20:17:00,
2014-10-20 13:22:00,71.6,62.2,29.82,ESE,113,7.0,9.5,72,0.00,,,0.00,0,,2014-10-20 20:22:00,
2014-10-20 13:27:00,69.8,61.5,29.82,ESE,111,7.9,12.0,75,0.00,,,0.00,0,,2014-10-20 20:27:00,
2014-10-20 13:32:00,68.0,60.8,29.82,ESE,109,6.9,10.4,78,0.00,,,0.00,0,,2014-10-20 20:32:00,
2014-10-20 13:37:00,67.4,61.0,29.82,ESE,120,4.6,10.1,79,0.00,,,0.00,0,,2014-10-20 20:37:00,
2014-10-20 13:42:00,66.9,60.8,29.82,ESE,109,4.3,9.8,80,0.00,,,0.00,0,,2014-10-20 20:42:00,
2014-10-20 13:47:00,66.7,60.8,29.82,ESE,115,5.2,9.2,81,0.00,,,0.00,0,,2014-10-20 20:47:00,
2014-10-20 13:52:00,66.5,60.0,29.81,ESE,104,5.7,8.4,79,0.00,,,0.00,0,,2014-10-20 20:52:00,
2014-10-20 13:57:00,66.7,60.0,29.81,ESE,111,5.8,11.5,79,0.00,,,0.00,0,,2014-10-20 20:57:00,
2014-10-20 14:02:00,66.7,60.4,29.82,ESE,104,6.1,9.2,80,0.00,,,0.00,0,,2014-10-20 21:02:00,
2014-10-20 14:07:00,66.9,60.5,29.81,East,100,4.4,9.2,79,0.00,,,0.00,0,,2014-10-20 21:07:00,
2014-10-20 14:12:00,70.1,62.3,29.81,East,79,4.1,7.8,76,0.00,,,0.00,0,,2014-10-20 21:12:00,
2014-10-20 14:17:00,70.3,61.8,29.81,East,101,7.3,8.7,74,0.00,,,0.00,0,,2014-10-20 21:17:00,
2014-10-20 14:22:00,74.4,63.0,29.81,ESE,119,5.6,9.0,67,0.00,,,0.00,0,,2014-10-20 21:22:00,
2014-10-20 14:27:00,76.8,62.9,29.80,ESE,105,8.2,10.4,62,0.00,,,0.00,0,,2014-10-20 21:27:00,
2014-10-20 14:32:00,77.0,62.8,29.80,ESE,106,8.4,11.8,61,0.00,,,0.00,0,,2014-10-20 21:32:00,
2014-10-20 14:37:00,76.2,62.1,29.80,ESE,103,8.8,14.6,61,0.00,,,0.00,0,,2014-10-20 21:37:00,
2014-10-20 14:42:00,75.7,61.2,29.80,ESE,109,10.6,13.5,60,0.00,,,0.00,0,,2014-10-20 21:42:00,
2014-10-20 14:47:00,73.0,61.5,29.80,ESE,105,7.7,14.9,67,0.00,,,0.00,0,,2014-10-20 21:47:00,
2014-10-20 14:52:00,73.5,61.8,29.80,ESE,104,8.7,13.5,66,0.00,,,0.00,0,,2014-10-20 21:52:00,
2014-10-20 14:57:00,74.4,61.5,29.79,ESE,117,8.1,14.0,64,0.00,,,0.00,0,,2014-10-20 21:57:00,
2014-10-20 15:02:00,74.4,61.5,29.79,ESE,108,8.1,12.6,64,0.00,,,0.00,0,,2014-10-20 22:02:00,
2014-10-20 15:07:00,75.0,62.0,29.79,East,94,7.1,12.3,64,0.00,,,0.00,0,,2014-10-20 22:07:00,
2014-10-20 15:12:00,76.6,62.2,29.79,East,97,8.4,13.2,61,0.00,,,0.00,0,,2014-10-20 22:12:00,
2014-10-20 15:17:00,76.6,61.8,29.79,ESE,103,10.7,14.6,60,0.00,,,0.00,0,,2014-10-20 22:17:00,
2014-10-20 15:22:00,76.4,62.1,29.79,ESE,112,6.5,13.7,61,0.00,,,0.00,0,,2014-10-20 22:22:00,
2014-10-20 15:27:00,75.7,61.2,29.78,ESE,112,5.5,11.2,60,0.00,,,0.00,0,,2014-10-20 22:27:00,
2014-10-20 15:32:00,73.0,61.2,29.79,East,94,3.1,10.9,66,0.00,,,0.00,0,,2014-10-20 22:32:00,
2014-10-20 15:38:00,75.0,58.7,29.78,ESE,106,6.4,12.9,57,0.00,,,0.00,0,,2014-10-20 22:38:00,
2014-10-20 15:43:00,76.2,59.9,29.78,ESE,107,10.3,14.6,57,0.00,,,0.00,0,,2014-10-20 22:43:00,
2014-10-20 15:48:00,75.2,59.2,29.78,ESE,111,9.1,15.7,57,0.00,,,0.00,0,,2014-10-20 22:48:00,
2014-10-20 15:53:00,72.1,59.5,29.78,East,99,6.3,13.7,64,0.00,,,0.00,0,,2014-10-20 22:53:00,
2014-10-20 15:58:00,71.4,56.1,29.77,ESE,112,8.1,10.4,58,0.00,,,0.00,0,,2014-10-20 22:58:00,
2014-10-20 16:03:00,73.7,56.6,29.77,ESE,112,5.9,12.0,55,0.00,,,0.00,0,,2014-10-20 23:03:00,
2014-10-20 16:08:00,76.4,57.2,29.77,East,97,4.0,11.5,51,0.00,,,0.00,0,,2014-10-20 23:08:00,
2014-10-20 16:13:00,75.2,53.9,29.77,ESE,108,5.8,9.5,47,0.00,,,0.00,0,,2014-10-20 23:13:00,
2014-10-20 16:18:00,74.8,54.6,29.77,ESE,108,6.7,10.4,49,0.00,,,0.00,0,,2014-10-20 23:18:00,
2014-10-20 16:23:00,75.9,55.3,29.77,ESE,108,6.3,11.2,49,0.00,,,0.00,0,,2014-10-20 23:23:00,
2014-10-20 16:28:00,76.1,55.1,29.77,ESE,114,7.7,13.7,48,0.00,,,0.00,0,,2014-10-20 23:28:00,
2014-10-20 16:33:00,76.4,54.3,29.77,ESE,107,9.3,12.6,46,0.00,,,0.00,0,,2014-10-20 23:33:00,
2014-10-20 16:38:00,76.2,55.0,29.77,ESE,108,6.8,14.0,47,0.00,,,0.00,0,,2014-10-20 23:38:00,
2014-10-20 16:43:00,76.2,55.4,29.77,ESE,105,7.9,11.5,48,0.00,,,0.00,0,,2014-10-20 23:43:00,
2014-10-20 16:48:00,75.9,54.8,29.77,ESE,110,7.8,14.3,48,0.00,,,0.00,0,,2014-10-20 23:48:00,
2014-10-20 16:53:00,75.3,55.2,29.77,ESE,115,8.0,14.6,49,0.00,,,0.00,0,,2014-10-20 23:53:00,
2014-10-20 16:58:00,75.2,54.8,29.77,ESE,115,7.6,14.3,49,0.00,,,0.00,0,,2014-10-20 23:58:00,
2014-10-20 17:03:00,75.2,53.8,29.78,SE,135,1.9,12.0,47,0.00,,,0.00,0,,2014-10-21 00:03:00,
2014-10-20 17:08:00,74.4,52.6,29.77,SSE,168,1.3,4.2,46,0.00,,,0.00,0,,2014-10-21 00:08:00,
2014-10-20 17:13:00,73.9,44.8,29.77,SSW,194,2.2,5.0,35,0.00,,,0.00,0,,2014-10-21 00:13:00,
2014-10-20 17:18:00,73.9,42.4,29.78,SSW,197,7.2,10.6,32,0.00,,,0.00,0,,2014-10-21 00:18:00,
2014-10-20 17:23:00,72.8,42.4,29.78,SSW,208,6.5,10.6,33,0.00,,,0.00,0,,2014-10-21 00:23:00,
2014-10-20 17:28:00,70.7,42.0,29.78,SSW,201,6.0,13.2,35,0.00,,,0.00,0,,2014-10-21 00:28:00,
2014-10-20 17:33:00,70.1,41.9,29.78,SSW,207,7.4,10.1,35,0.00,,,0.00,0,,2014-10-21 00:33:00,
2014-10-20 17:38:00,69.6,41.8,29.78,SSW,202,5.8,12.3,36,0.00,,,0.00,0,,2014-10-21 00:38:00,
2014-10-20 17:43:00,69.0,41.6,29.78,SSW,193,8.1,11.8,36,0.00,,,0.00,0,,2014-10-21 00:43:00,
2014-10-20 17:48:00,68.5,41.5,29.78,South,185,7.4,10.4,37,0.00,,,0.00,0,,2014-10-21 00:48:00,
2014-10-20 17:53:00,68.1,41.8,29.79,SW,225,5.0,13.2,38,0.00,,,0.00,0,,2014-10-21 00:53:00,
2014-10-20 17:58:00,67.6,42.0,29.79,SW,221,8.2,12.0,39,0.00,,,0.00,0,,2014-10-21 00:58:00,
2014-10-20 18:03:00,66.9,42.9,29.79,SW,215,6.1,15.4,41,0.00,,,0.00,0,,2014-10-21 01:03:00,
2014-10-20 18:08:00,66.3,43.0,29.79,SW,235,6.3,12.6,42,0.00,,,0.00,0,,2014-10-21 01:08:00,
2014-10-20 18:13:00,65.8,43.5,29.80,SSW,205,9.4,14.0,44,0.00,,,0.00,0,,2014-10-21 01:13:00,
2014-10-20 18:18:00,65.3,44.1,29.80,WSW,237,3.8,13.5,46,0.00,,,0.00,0,,2014-10-21 01:18:00,
2014-10-20 18:23:00,64.5,44.1,29.80,SW,216,4.3,9.0,47,0.00,,,0.00,0,,2014-10-21 01:23:00,
2014-10-20 18:28:00,64.5,44.2,29.80,WSW,237,3.4,7.8,47,0.00,,,0.00,0,,2014-10-21 01:28:00,
2014-10-20 18:33:00,64.2,44.2,29.80,SW,236,2.6,8.4,48,0.00,,,0.00,0,,2014-10-21 01:33:00,
2014-10-20 18:38:00,64.2,44.2,29.80,SW,224,4.1,7.5,48,0.00,,,0.00,0,,2014-10-21 01:38:00,
2014-10-20 18:43:00,63.8,44.0,29.80,SSW,204,2.4,6.4,48,0.00,,,0.00,0,,2014-10-21 01:43:00,
2014-10-20 18:48:00,63.6,44.0,29.80,SSW,203,5.5,7.3,48,0.00,,,0.00,0,,2014-10-21 01:48:00,
2014-10-20 18:53:00,63.6,43.9,29.80,South,191,4.8,8.1,48,0.00,,,0.00,0,,2014-10-21 01:53:00,
2014-10-20 18:58:00,63.6,43.8,29.81,South,177,5.7,8.7,48,0.00,,,0.00,0,,2014-10-21 01:58:00,
2014-10-20 19:03:00,63.1,43.7,29.81,South,188,4.1,7.8,49,0.00,,,0.00,0,,2014-10-21 02:03:00,
2014-10-20 19:08:00,62.9,43.5,29.82,SSW,206,7.4,8.7,49,0.00,,,0.00,0,,2014-10-21 02:08:00,
2014-10-20 19:13:00,62.6,43.4,29.82,South,186,4.0,9.8,49,0.00,,,0.00,0,,2014-10-21 02:13:00,
2014-10-20 19:18:00,62.4,43.6,29.82,SSW,200,2.9,6.4,50,0.00,,,0.00,0,,2014-10-21 02:18:00,
2014-10-20 19:23:00,62.0,43.9,29.83,SSW,211,2.6,5.0,51,0.00,,,0.00,0,,2014-10-21 02:23:00,
2014-10-20 19:28:00,62.2,44.0,29.83,SSW,196,3.2,6.1,51,0.00,,,0.00,0,,2014-10-21 02:28:00,
2014-10-20 19:33:00,62.2,43.8,29.83,SW,226,2.1,6.1,50,0.00,,,0.00,0,,2014-10-21 02:33:00,
2014-10-20 19:38:00,62.0,43.7,29.83,SW,218,1.0,4.7,51,0.00,,,0.00,0,,2014-10-21 02:38:00,
2014-10-20 19:43:00,61.5,43.5,29.83,South,188,0.0,1.9,51,0.00,,,0.00,0,,2014-10-21 02:43:00,
2014-10-20 19:48:00,61.3,43.4,29.83,SSW,202,3.1,3.9,51,0.00,,,0.00,0,,2014-10-21 02:48:00,
2014-10-20 19:53:00,60.8,43.0,29.83,SSW,201,4.3,4.5,51,0.00,,,0.00,0,,2014-10-21 02:53:00,
2014-10-20 19:58:00,60.8,42.5,29.84,SSW,195,2.9,6.7,51,0.00,,,0.00,0,,2014-10-21 02:58:00,
2014-10-20 20:03:00,60.6,42.4,29.84,WSW,254,0.9,5.3,51,0.00,,,0.00,0,,2014-10-21 03:03:00,
2014-10-20 20:08:00,59.5,43.0,29.85,NNW,345,1.6,1.9,54,0.00,,,0.00,0,,2014-10-21 03:08:00,
2014-10-20 20:13:00,58.8,42.6,29.85,South,172,0.9,2.2,54,0.00,,,0.00,0,,2014-10-21 03:13:00,
2014-10-20 20:18:00,58.6,42.2,29.85,NNE,32,0.1,1.9,54,0.00,,,0.00,0,,2014-10-21 03:18:00,
2014-10-20 20:23:00,58.6,42.3,29.85,SSW,199,0.5,1.9,54,0.00,,,0.00,0,,2014-10-21 03:23:00,
2014-10-20 20:28:00,57.5,42.5,29.85,SE,143,0.4,1.1,57,0.00,,,0.00,0,,2014-10-21 03:28:00,
2014-10-20 20:33:00,56.6,42.3,29.85,ENE,57,0.0,0.8,58,0.00,,,0.00,0,,2014-10-21 03:33:00,
2014-10-20 20:38:00,55.7,42.3,29.85,ENE,57,0.0,0.0,60,0.00,,,0.00,0,,2014-10-21 03:38:00,
2014-10-20 20:43:00,55.9,42.2,29.85,NE,45,0.4,1.4,59,0.00,,,0.00,0,,2014-10-21 03:43:00,
2014-10-20 20:49:00,55.4,42.5,29.87,NNE,21,0.6,0.6,61,0.00,,,0.00,0,,2014-10-21 03:49:00,
2014-10-20 20:54:00,55.2,42.3,29.87,West,276,0.1,2.2,61,0.00,,,0.00,0,,2014-10-21 03:54:00,
2014-10-20 20:59:00,54.6,42.2,29.87,West,276,0.0,1.4,62,0.00,,,0.00,0,,2014-10-21 03:59:00,
2014-10-20 21:04:00,54.8,42.5,29.88,WSW,249,0.0,0.8,63,0.00,,,0.00,0,,2014-10-21 04:04:00,
2014-10-20 21:09:00,54.8,42.5,29.88,South,175,0.7,2.2,63,0.00,,,0.00,0,,2014-10-21 04:09:00,
2014-10-20 21:14:00,54.1,42.4,29.89,NE,51,0.4,1.4,64,0.00,,,0.00,0,,2014-10-21 04:14:00,
2014-10-20 21:19:00,53.4,42.4,29.89,North,349,0.0,0.8,66,0.00,,,0.00,0,,2014-10-21 04:19:00,
2014-10-20 21:24:00,53.2,42.3,29.89,WSW,239,0.4,0.8,66,0.00,,,0.00,0,,2014-10-21 04:24:00,
2014-10-20 21:29:00,52.8,42.2,29.89,WSW,254,0.9,1.9,67,0.00,,,0.00,0,,2014-10-21 04:29:00,
2014-10-20 21:34:00,53.0,42.2,29.89,WNW,303,0.6,1.6,66,0.00,,,0.00,0,,2014-10-21 04:34:00,
2014-10-20 21:39:00,52.7,41.9,29.90,East,90,0.0,1.6,66,0.00,,,0.00,0,,2014-10-21 04:39:00,